Sacramento, CA

7:31 PM PST on February 21, 2018 (GMT -0800)
Sacramento Executive

Weather History for KSAC - March, 2013

Change the Weather History Date:

Friday, March 8, 2013

  Actual Average Record
Temperature  
Mean Temperature 52 °F -  
Max Temperature 66 °F 64 °F 78 °F (2004)
Min Temperature 37 °F 44 °F 31 °F (2002)
Degree Days  
Heating Degree Days 13    
Cooling Degree Days 0    
Moisture  
Dew Point 38 °F    
Average Humidity 61    
Maximum Humidity 85    
Minimum Humidity 36    
Precipitation  
Precipitation 0.00 in 0.10 in 1.04 in (1943)
Month to date precipitation 0.23 0.88  
Year to date precipitation 1.55 7.99  
Since 1 July precipitation 12.84  
Sea Level Pressure  
Sea Level Pressure 29.87 in    
Wind  
Wind Speed 6 mph (West)    
Max Wind Speed 15 mph    
Max Gust Speed 21 mph    
Visibility 10 miles    
Events      
T = Trace of Precipitation, MM = Missing Value Source: NWS Daily Summary

Daily Weather History Graph

Daily Weather History Graph

Search for Another Location

Airport or City:

Trip Planner

Search our weather history database for the weather conditions in past years. The results will help you decide how hot, cold, wet, or windy it might be!

Date:

Astronomy

Mar. 08, 2013 Rise Set
Actual Time 6:27 AM PST 6:06 PM PST
Civil Twilight 6:00 AM PST 6:32 PM PST
Nautical Twilight 5:30 AM PST 7:03 PM PST
Astronomical Twilight 4:59 AM PST 7:34 PM PST
Moon 4:13 AM PST (3/8) 3:09 PM PST (3/8)
Length of Visible Light 12h 32m
Length of Day
11h 39m
Waning Crescent, 11% of the Moon is Illuminated
Mar 8
Waning Crescent
Mar 11
New
Mar 19
First Quarter
Mar 27
Full
Apr 2
Last Quarter

Hourly Weather History & Observations

Time (PST) Temp. Windchill Dew Point Humidity Pressure Visibility Wind Dir Wind Speed Gust Speed Precip Events Conditions
12:53 AM 46.9 °F - 39.9 °F 77% 29.86 in 10.0 mi NNW 3.5 mph - N/A   Partly Cloudy
1:53 AM 44.1 °F 42.5 °F 39.0 °F 82% 29.86 in 10.0 mi NW 3.5 mph - N/A   Clear
2:53 AM 42.1 °F - 37.0 °F 82% 29.84 in 10.0 mi Calm Calm - N/A   Clear
3:53 AM 41.0 °F - 35.1 °F 79% 29.83 in 10.0 mi Calm Calm - N/A   Clear
4:53 AM 37.9 °F 33.5 °F 34.0 °F 86% 29.82 in 10.0 mi WNW 5.8 mph - N/A   Clear
5:53 AM 39.0 °F 34.8 °F 33.1 °F 79% 29.83 in 10.0 mi NW 5.8 mph - N/A   Clear
6:53 AM 39.0 °F 35.7 °F 33.1 °F 79% 29.85 in 10.0 mi WNW 4.6 mph - N/A   Clear
7:53 AM 43.0 °F 40.3 °F 35.1 °F 74% 29.85 in 10.0 mi NW 4.6 mph - N/A   Clear
8:53 AM 46.9 °F - 35.1 °F 63% 29.86 in 10.0 mi NNW 10.4 mph - N/A   Clear
9:53 AM 52.0 °F - 36.0 °F 54% 29.86 in 10.0 mi NW 8.1 mph - N/A   Clear
10:53 AM 55.9 °F - 37.0 °F 49% 29.85 in 10.0 mi NW 8.1 mph - N/A   Clear
11:53 AM 60.1 °F - 37.9 °F 44% 29.85 in 10.0 mi NW 10.4 mph - N/A   Clear
12:53 PM 60.1 °F - 35.1 °F 39% 29.84 in 10.0 mi WNW 12.7 mph - N/A   Clear
1:53 PM 63.0 °F - 37.0 °F 38% 29.82 in 10.0 mi NW 9.2 mph - N/A   Clear
2:53 PM 62.1 °F - 36.0 °F 38% 29.83 in 10.0 mi SW 9.2 mph - N/A   Clear
3:53 PM 64.9 °F - 37.0 °F 36% 29.82 in 10.0 mi SW 9.2 mph - N/A   Clear
4:53 PM 62.1 °F - 42.1 °F 48% 29.83 in 10.0 mi SW 15.0 mph 20.7 mph N/A   Clear
5:53 PM 55.9 °F - 42.1 °F 60% 29.86 in 10.0 mi SW 12.7 mph 20.7 mph N/A   Clear
6:53 PM 52.0 °F - 42.1 °F 69% 29.89 in 10.0 mi SW 12.7 mph - N/A   Clear
7:53 PM 50.0 °F - 42.1 °F 74% 29.92 in 10.0 mi SSW 10.4 mph 17.3 mph N/A   Clear
8:53 PM 48.9 °F - 41.0 °F 74% 29.95 in 10.0 mi SSW 5.8 mph - N/A   Clear
9:53 PM 48.0 °F - 41.0 °F 77% 30.00 in 10.0 mi SSE 4.6 mph - N/A   Clear
10:53 PM 48.0 °F - 39.9 °F 74% 30.01 in 10.0 mi SE 8.1 mph - N/A   Clear
11:53 PM 46.9 °F - 39.9 °F 77% 30.03 in 10.0 mi SSE 6.9 mph - N/A   Clear